Location: Halaç
(36.3406°N, 30.1260°E)
Time: 22:14:52
(UTC+00:00)

Daily predictions for brighter satellites

Satellite Brightness Start Highest point End
(mag) Time Altitude Azimuth Time Altitude Azimuth Time Altitude Azimuth
Resurs 01 Rocket 1.7 17:46:20 10° SSE 17:50:42 68° ENE 17:55:04 10° N
Cosmos 1400 Rocket 2.7 17:47:27 10° S 17:51:14 61° E 17:55:01 10° NNE
Cosmos 1908 3.0 17:47:53 10° N 17:51:30 70° E 17:55:06 10° SSE
CZ-4B R/B 3.2 17:48:00 10° SSE 17:53:17 86° ENE 17:58:41 10° NNW
Meteor 2-10 Rocket 4.4 17:48:33 10° NNE 17:53:19 32° ENE 17:57:54 10° SE
Cosmos 2360 Rocket 2.9 17:51:30 10° N 17:56:49 40° ENE 18:02:05 10° SE
Feng Yun 1-1 Rocket 4.4 17:52:33 10° SSE 17:58:21 85° ENE 18:04:02 10° NNW
GENESIS II 3.9 17:56:01 10° SSW 17:59:36 71° ESE 18:03:13 10° NE
Cosmos 2237 4.5 17:55:42 10° NNW 18:01:25 74° WSW 18:07:05 10° SSE
RESURS DK-1 2.4 18:01:08 10° NNW 18:05:14 82° WSW 18:09:17 10° SSE
Cosmos 1441 Rocket 3.7 18:05:59 10° NNW 18:09:35 56° W 18:13:11 10° S
SL-24 R/B 4.0 18:05:42 10° SSE 18:10:08 71° ENE 18:14:05 10° N
Cosmos 968 Rocket 3.5 18:06:45 10° SSW 18:11:53 88° ESE 18:17:06 10° NNE
Cosmos 1869 Rocket 3.6 18:12:41 10° N 18:17:10 86° W 18:21:37 10° S
SL-16 R/B 2.7 18:12:55 10° NNW 18:18:31 61° WSW 18:24:03 10° S
CSL-04 Rocket 3.9 18:14:31 10° S 18:19:47 69° WSW 18:25:09 10° NNW
USA 234 3.9 18:16:37 10° ENE 18:22:14 30° SE 18:27:51 10° S
Meteor 1-21 4.4 18:17:53 10° S 18:23:32 58° E 18:29:15 10° NNE
Cosmos 1315 Rocket 4.0 18:22:16 16° SE 18:24:27 25° E 18:27:44 10° NE
ASTRO E2 3.8 18:22:37 10° WSW 18:25:26 23° SSW 18:27:03 17° SSE
SJ 16-02 1.3 18:23:25 10° SSW 18:27:42 84° WNW 18:32:03 10° NNE
Cosmos 1346 Rocket 3.1 18:24:23 10° N 18:28:05 45° ENE 18:30:34 18° SE
CZ-4C R/B 2.4 18:26:57 10° S 18:30:30 29° ESE 18:34:37 10° NE
ARGOS Delta rocket 3.8 18:28:12 15° SSE 18:31:38 55° ENE 18:35:56 10° N
COSMOS 2455 3.4 18:26:48 10° S 18:32:08 34° ESE 18:37:30 10° NE
Terra 3.0 18:30:37 16° ESE 18:33:17 27° ENE 18:37:13 10° NNE
Cosmos 2266 Rocket 4.4 18:28:04 10° SSW 18:34:21 67° W 18:40:45 10° N
Okean-O 2.6 18:31:03 13° SSE 18:34:54 82° ENE 18:39:20 10° N
Cosmos 2333 Rocket 2.2 18:32:13 10° NNW 18:38:00 83° ENE 18:42:29 17° SSE
SL-4 R/B 4.2 18:35:46 10° NNW 18:38:21 17° NNE 18:41:03 10° ENE
SL-14 R/B 3.6 18:35:15 10° SSW 18:38:59 62° W 18:42:45 10° N
Okean 1-7 3.8 18:37:49 21° SE 18:40:00 33° E 18:43:53 10° NNE
SPOT 5 2.6 18:38:42 19° SSE 18:41:43 65° ENE 18:46:09 10° N
S3M 4.2 18:35:36 10° N 18:41:54 75° W 18:48:05 10° S
Okean O Rocket 2.8 18:39:03 10° SSW 18:43:09 39° W 18:47:14 10° NNW
USA 245 4.4 18:41:37 22° ESE 18:43:41 36° ENE 18:48:12 10° N
IRS-1A Rocket 4.4 18:39:54 19° SE 18:43:47 56° ENE 18:49:11 10° N
Cosmos 1862 Rocket 3.5 18:39:51 10° S 18:44:15 86° E 18:48:42 10° N
Meteor 1-4 Rocket 1.9 18:42:51 22° S 18:44:35 71° E 18:47:35 10° NNE
ERS-1 Rocket 3.4 18:42:34 21° SE 18:45:35 45° ENE 18:50:21 10° N
CZ-4C R/B 3.6 18:43:37 10° N 18:47:42 72° WNW 18:51:40 10° SSW
Cosmos 2228 Rocket 3.6 18:43:48 10° SSW 18:48:17 61° W 18:52:49 10° N
Okean 3 3.3 18:47:54 14° S 18:51:28 84° E 18:55:39 10° N
Cosmos 1814 Rocket 4.0 18:46:23 10° NNW 18:51:43 73° ENE 18:55:01 24° SSE
SL-23 DEB 4.3 18:53:18 32° SE 18:53:38 32° SE 18:57:32 10° ENE
Okean 2 3.6 18:52:42 28° SSE 18:54:25 47° E 18:58:17 10° NNE
Cosmos 2322 Rocket 3.0 18:50:21 10° NW 18:55:47 47° WSW 19:00:32 13° S
Meteor 1-16 Rocket 4.5 18:51:07 10° N 18:56:57 57° ENE 19:00:16 25° SSE
Cosmos 2297 Rocket 3.2 18:56:07 23° ESE 18:57:09 25° ESE 19:01:37 10° NE
DNEPR-1 R/B 4.1 18:51:01 10° NNW 18:57:12 74° ENE 18:59:58 28° SE
Meteor 2-20 4.4 18:51:34 10° N 18:57:42 70° E 19:01:44 22° SSE
Cosmos 1242 Rocket 3.1 18:59:30 27° ENE 18:59:30 27° ENE 19:01:16 10° NNE
Cosmos 2333 4.2 18:53:08 10° NNW 18:58:56 86° WSW 19:02:36 24° SSE
Cosmos 1300 3.2 18:56:34 10° NNW 19:00:01 51° W 19:02:13 20° SSW
Aureole 3 3.8 18:56:37 14° S 19:00:15 82° W 19:05:35 10° N
OPS 8737 4.2 18:58:28 10° NNW 19:01:30 81° ENE 19:02:24 45° SE
Cosmos 1244 Rocket 4.5 19:01:19 18° S 19:05:59 68° E 19:12:16 10° NNE
Atlas Centaur 2 4.4 19:04:12 10° WSW 19:09:16 19° SSW 19:12:24 16° S
ATLAS 2AS CENTAUR R/B 2.9 19:03:52 10° NW 19:10:28 60° WSW 19:14:33 23° S
Cosmos 2219 Rocket 2.1 19:05:22 10° NNW 19:11:05 86° ENE 19:13:59 30° SSE
Nadezhda 2 Rocket 4.5 19:11:18 20° S 19:16:00 77° E 19:22:24 10° N
Landsat 4 3.9 19:18:11 43° E 19:18:19 43° ENE 19:21:35 10° N
Spot 2 Rocket 3.5 19:16:35 35° SSE 19:18:42 70° ENE 19:23:46 10° N
SPOT 3 Rocket 3.6 19:18:14 36° SE 19:20:14 61° ENE 19:25:20 10° N
SL-08 R/B 4.4 19:17:46 26° S 19:21:16 70° E 19:27:20 10° NNE
Delta 2 Rocket 3.2 19:19:49 10° WSW 19:22:18 46° SW 19:22:18 46° SW
Cosmos 1733 Rocket 4.1 19:19:31 10° NNW 19:23:41 41° W 19:26:21 20° SSW
Cosmos 1408 4.5 19:29:34 15° NE 19:29:34 15° NE 19:30:18 10° NE
Cosmos 1455 1.9 19:25:49 10° N 19:29:16 66° ENE 19:29:16 66° ENE
SeaSat 1 3.0 19:28:53 35° ESE 19:30:22 46° ENE 19:35:03 10° NNW
Meteor 2-20 Rocket 4.3 19:24:34 10° N 19:30:39 90° W 19:33:21 34° S
CENTAUR R/B 3.1 19:36:42 31° E 19:36:42 31° E 19:41:33 10° NE
Cosmos 2360 Rocket 3.9 19:36:02 10° NW 19:40:30 24° WSW 19:44:03 14° SSW
COSMOS 2428 2.7 19:35:41 10° NNW 19:41:22 70° ENE 19:43:02 46° SE
Cosmos 158 Rocket 4.1 19:37:33 10° N 19:42:41 58° ENE 19:43:41 49° ESE
Cosmos 2208 Rocket 4.1 19:38:26 10° N 19:43:34 62° ENE 19:44:36 50° ESE
Ariane Rocket 3.1 19:42:23 42° S 19:44:05 71° WSW 19:49:10 10° NNW
Cosmos 1908 Rocket 3.4 19:41:22 10° N 19:45:41 83° W 19:46:16 66° SSW
Cosmos 1953 2.4 19:43:35 10° NNW 19:47:20 60° W 19:47:36 58° WSW
Cosmos 1782 Rocket 3.8 19:45:25 10° N 19:49:35 51° ENE 19:49:35 51° ENE
Cosmos 839 Rocket 4.4 19:44:01 10° NW 19:50:13 53° WSW 19:52:28 35° SSW
Cosmos 2084 Rocket 4.3 19:48:59 10° SW 19:53:12 48° NW 19:57:17 10° NNE
Cosmos 1486 Rocket 4.1 19:51:31 32° SSW 19:53:57 72° WNW 19:59:10 10° NNE
Cosmos 1300 Rocket 4.0 19:50:56 10° N 19:54:52 47° ENE 19:54:52 47° ENE
SL-12 R/B(2) 4.4 19:54:35 39° SE 19:56:08 42° ESE 20:04:18 10° NE
MetOp-A 3.9 20:02:04 63° SE 20:02:52 78° ENE 20:08:05 10° N
ARIANE 5 R/B 4.1 20:04:21 25° ENE 20:04:21 25° ENE 20:07:39 10° NNE
USA 234 3.6 19:58:59 10° NE 20:05:26 65° NW 20:11:53 10° WSW
NOSS 0 Rocket 3.9 19:59:27 10° NNW 20:05:43 74° ENE 20:07:09 54° SE
Cosmos 371 Rocket 3.8 20:05:26 37° SW 20:07:05 57° WNW 20:11:51 10° N
GP-B 3.0 20:05:36 10° N 20:09:47 78° NE 20:09:47 78° NE
Terra 3.4 20:09:19 23° SW 20:10:46 27° W 20:14:44 10° NW
Cosmos 1354 Rocket 3.8 20:14:54 75° SSE 20:15:16 80° ESE 20:20:34 10° NNE
USA 281 4.4 20:13:12 25° E 20:15:30 31° ENE 20:21:08 10° N
Cosmos 1745 Rocket 4.2 20:14:07 39° SSW 20:16:32 69° W 20:22:53 10° N
SL-4 R/B 2.5 20:13:32 10° NW 20:16:43 56° NW 20:16:43 56° NW
COSMOS 2455 4.3 20:12:32 10° WSW 20:17:58 35° NW 20:23:27 10° N
CZ-4C R/B 3.9 20:15:02 10° WSW 20:18:46 26° NW 20:23:10 10° NNE
H-2A R/B 4.5 20:20:29 19° ENE 20:20:29 19° ENE 20:22:56 10° NNE
SL-16 R/B 4.1 20:16:56 10° NNE 20:20:37 17° NE 20:22:21 15° ENE
Cosmos 2227 Rocket 2.1 20:21:35 69° ESE 20:21:43 70° ESE 20:27:22 10° NNE
Cosmos 2237 Rocket 2.3 20:17:04 10° NNW 20:22:39 59° ENE 20:23:11 56° E
BREEZE-M DEB (TANK) 3.8 20:20:11 10° NW 20:21:42 39° NW 20:21:42 39° NW
Meteor 2-5 Rocket 3.7 20:22:51 68° SE 20:23:22 72° E 20:29:10 10° NNE
Nadezhda 1 Rocket 4.1 20:20:56 10° NNW 20:27:04 67° W 20:28:26 52° SSW
Cosmos 1066 4.5 20:27:24 77° SE 20:27:37 79° E 20:33:11 10° N
Cosmos 1980 3.5 20:31:29 10° NNW 20:37:11 84° ENE 20:37:25 81° ESE
Cosmos 773 Rocket 3.9 20:32:57 10° NNW 20:37:59 81° WNW 20:37:59 81° WNW
Cosmos 2297 Rocket 3.3 20:37:49 22° WSW 20:40:52 40° WNW 20:46:11 10° N
Okean 2 Rocket 4.5 20:38:33 10° NNE 20:41:37 30° NE 20:41:37 30° NE
NOSS 3-2 (A) 3.3 20:46:21 59° ENE 20:46:21 59° ENE 20:51:08 10° NE
ALOS 2 4.3 20:48:20 24° NE 20:48:20 24° NE 20:51:08 10° NNE
Cosmos 2074 Rocket 4.4 20:48:52 46° E 20:48:52 46° E 20:54:39 10° NNE
Cosmos 2219 3.3 20:56:02 64° ENE 20:56:02 64° ENE 21:00:57 10° NNE
Cosmos 2181 Rocket 3.9 20:50:42 10° N 20:56:47 65° E 20:56:57 65° E
Cosmos 2098 Rocket 3.7 20:53:50 10° N 21:00:12 87° W 21:00:15 87° WSW
Meteor 1-24 Rocket 4.2 21:00:36 49° WSW 21:01:17 51° WNW 21:06:43 10° N
Cosmos 2263 Rocket 2.8 21:02:30 46° ENE 21:02:30 46° ENE 21:06:45 10° NNE
SeaSat 1 4.3 21:08:35 19° W 21:08:35 19° W 21:11:29 10° WNW
BREEZE-M R/B 3.3 21:19:46 71° NW 21:19:57 72° NNW 21:28:20 10° NE
Okean 1 Rocket 4.3 21:17:34 10° N 21:20:25 38° NNE 21:20:25 38° NNE
Spot 4 4.4 21:24:29 55° NNW 21:24:29 55° NNW 21:28:15 10° NNW
CENTAUR R/B 3.6 21:23:46 23° W 21:26:33 36° NW 21:32:40 10° NNE
Nadezhda 3 Rocket 4.2 21:26:54 10° N 21:32:59 57° E 21:32:59 57° E
Cosmos 1025 Rocket 4.5 21:35:17 35° NNE 21:35:17 35° NNE 21:37:49 10° N
Cosmos 2184 Rocket 4.1 21:41:41 66° W 21:41:55 67° W 21:48:17 10° N
Cosmos 1898 Rocket 3.9 21:45:07 57° N 21:45:07 57° N 21:49:16 10° NNE
Meteor 1-21 Rocket 4.4 21:45:20 70° NNE 21:45:20 70° NNE 21:50:21 10° N
Cosmos 2327 Rocket 4.5 21:53:31 71° ENE 21:53:31 71° ENE 21:59:17 10° N
USA 281 3.7 22:00:04 45° W 22:00:04 45° W 22:06:00 10° NW
Cosmos 2154 Rocket 4.2 22:00:32 57° W 22:00:38 57° W 22:06:51 10° N
SL-8 Rocket 4.4 22:01:46 49° E 22:01:46 49° E 22:07:30 10° NNE
USA 238 DEB 3.6 22:04:39 61° E 22:04:39 61° E 22:10:22 10° NE
USA 238 3.7 22:04:42 60° E 22:04:42 60° E 22:10:24 10° NE
SL-16 R/B 2.6 21:59:34 10° NNW 22:04:11 55° WNW 22:04:11 55° WNW
Cosmos 2237 Rocket 4.3 22:02:47 10° WNW 22:05:00 15° W 22:05:00 15° W
Cosmos 1867 4.1 22:09:45 55° NE 22:09:45 55° NE 22:14:02 10° NNE
Cosmos 1943 4.0 22:06:27 10° N 22:11:45 41° ENE 22:12:08 41° ENE
Cosmos 962 Rocket 4.4 22:13:31 85° ENE 22:13:31 85° ENE 22:19:45 10° N
Cosmos 1680 Rocket 3.9 22:20:12 10° NNW 22:24:39 58° NNE 22:24:39 58° NNE
Cosmos 2112 Rocket 4.4 22:26:06 10° N 22:30:37 57° NE 22:30:37 57° NE
Cosmos 864 Rocket 4.4 22:39:41 87° SE 22:39:47 88° E 22:46:08 10° N
GEOS 3 Rocket 4.0 22:37:25 10° NE 22:41:32 54° ENE 22:41:32 54° ENE
Cosmos 2263 Rocket 4.1 22:44:09 18° WNW 22:45:34 19° NW 22:49:31 10° N
H-2A R/B 3.9 22:42:54 10° N 22:45:13 24° NW 22:45:13 24° NW
Cosmos 1844 3.7 22:55:18 81° ENE 22:55:18 81° ENE 23:00:52 10° NNE
Cosmos 921 Rocket 4.4 22:53:45 10° N 22:56:55 33° NE 22:56:55 33° NE
Cosmos 2341 Rocket 4.4 23:00:28 49° W 23:00:37 49° W 23:06:39 10° N
Cosmos 1844 Rocket 2.7 23:01:41 72° NW 23:01:41 72° NW 23:07:02 10° NNE
Cosmos 1125 Rocket 4.2 23:03:30 44° E 23:03:30 44° E 23:08:12 10° NNE
CZ-2D R/B 3.6 23:02:57 10° NE 23:07:09 24° E 23:07:41 24° ESE
Cosmos 1821 Rocket 3.8 23:07:24 78° SSE 23:07:48 83° E 23:13:59 10° N
CZ-2C R/B 4.2 23:17:11 20° ESE 23:19:50 30° ENE 23:24:29 10° N
Timation 2 Rocket 4.0 23:20:08 65° SSE 23:20:58 73° ESE 23:27:20 10° NNE
Resurs 1-4 Rocket 3.1 23:17:01 10° NNE 23:21:52 36° E 23:22:29 35° ESE
Cosmos 1437 Rocket 4.4 23:29:05 28° NNW 23:29:05 28° NNW 23:31:09 10° N
Meteor 2-13 Rocket 4.3 23:25:17 10° N 23:31:25 84° W 23:32:13 69° SSW
Cosmos 1934 Rocket 4.5 23:31:02 41° SE 23:32:50 54° E 23:39:00 10° NNE
BlueWalker 3 4.5 23:29:57 10° NNW 23:32:51 21° NNE 23:35:43 10° E
MOZ.5/SAFIR/RUBIN 5/SL-8 3.8 23:35:41 76° NE 23:35:41 76° NE 23:40:11 10° N
Cosmos 2150 Rocket 4.4 23:38:23 50° ESE 23:38:54 52° ESE 23:44:03 10° NNE
IDEFIX/ARIANE 42P 2.5 23:33:57 10° NNE 23:39:11 74° ESE 23:39:36 70° SE
Cosmos 1606 Rocket 3.8 23:34:47 10° N 23:38:49 68° NE 23:38:49 68° NE
ALOS 4.4 23:38:01 10° NE 23:40:54 16° E 23:42:29 14° ESE
Cosmos 2278 Rocket 4.2 23:42:28 15° SE 23:44:42 18° E 23:48:26 10° ENE
NPP 3.5 23:41:44 10° NNE 23:47:09 85° ESE 23:47:52 68° S
Helios 1A Rocket 4.5 23:52:13 24° NW 23:52:13 24° NW 23:54:02 10° NNW
Cosmos 1726 Rocket 3.6 23:46:58 10° N 23:51:23 74° E 23:51:23 74° E
Cosmos 2123 Rocket 4.3 23:46:45 10° N 23:52:55 64° E 23:55:44 33° SSE
